TimeEST,TemperatureF,Dew PointF,Humidity,Sea Level PressureIn,VisibilityMPH,Wind Direction,Wind SpeedMPH,Gust SpeedMPH,PrecipitationIn,Events,Conditions,WindDirDegrees,DateUTC
12:53 AM,46.0,37.9,73,30.26,10.0,NE,4.6,-,N/A,,Overcast,50,2012-12-13 05:53:00
1:46 AM,46.4,37.4,71,30.23,10.0,Variable,4.6,-,N/A,,Overcast,0,2012-12-13 06:46:00
1:53 AM,46.0,37.9,73,30.25,10.0,Calm,Calm,-,N/A,,Overcast,0,2012-12-13 06:53:00
2:00 AM,46.4,37.4,71,30.24,10.0,NE,4.6,-,N/A,,Overcast,50,2012-12-13 07:00:00
2:53 AM,46.0,37.0,71,30.27,10.0,NE,4.6,-,N/A,,Overcast,50,2012-12-13 07:53:00
3:53 AM,46.0,37.9,73,30.30,10.0,Calm,Calm,-,N/A,,Overcast,0,2012-12-13 08:53:00
4:24 AM,46.4,37.4,71,30.29,10.0,Calm,Calm,-,N/A,,Overcast,0,2012-12-13 09:24:00
4:53 AM,46.0,37.0,71,30.29,10.0,NNE,6.9,-,N/A,,Overcast,30,2012-12-13 09:53:00
5:53 AM,45.0,36.0,71,30.30,10.0,NE,3.5,-,N/A,,Overcast,40,2012-12-13 10:53:00
6:53 AM,43.0,35.1,74,30.31,10.0,Calm,Calm,-,N/A,,Clear,0,2012-12-13 11:53:00
7:53 AM,37.0,35.1,93,30.34,8.0,Calm,Calm,-,N/A,,Clear,0,2012-12-13 12:53:00
8:53 AM,43.0,37.0,80,30.35,10.0,Calm,Calm,-,N/A,,Clear,0,2012-12-13 13:53:00
9:53 AM,48.0,35.1,61,30.36,10.0,Variable,4.6,-,N/A,,Clear,0,2012-12-13 14:53:00
10:53 AM,51.1,36.0,56,30.37,10.0,East,5.8,-,N/A,,Clear,90,2012-12-13 15:53:00
11:53 AM,53.1,37.0,55,30.36,10.0,East,6.9,-,N/A,,Clear,80,2012-12-13 16:53:00
12:53 PM,55.0,37.0,51,30.33,10.0,East,5.8,-,N/A,,Clear,90,2012-12-13 17:53:00
1:53 PM,55.9,37.0,49,30.31,10.0,East,5.8,-,N/A,,Clear,100,2012-12-13 18:53:00
2:53 PM,57.9,37.9,47,30.30,10.0,Variable,3.5,-,N/A,,Clear,0,2012-12-13 19:53:00
3:53 PM,57.0,37.9,49,30.30,10.0,Variable,5.8,-,N/A,,Clear,0,2012-12-13 20:53:00
4:53 PM,55.0,37.9,53,30.30,10.0,East,4.6,-,N/A,,Clear,80,2012-12-13 21:53:00
7:53 PM,39.9,37.0,89,30.34,10.0,Calm,Calm,-,N/A,,Clear,0,2012-12-14 00:53:00
8:53 PM,37.9,35.1,89,30.35,10.0,Calm,Calm,-,N/A,,Clear,0,2012-12-14 01:53:00
9:53 PM,36.0,34.0,93,30.35,10.0,Calm,Calm,-,N/A,,Clear,0,2012-12-14 02:53:00
10:53 PM,34.0,32.0,92,30.35,10.0,Calm,Calm,-,N/A,,Clear,0,2012-12-14 03:53:00
11:53 PM,33.1,30.0,89,30.35,10.0,Calm,Calm,-,N/A,,Clear,0,2012-12-14 04:53:00